Flag for France Weather past 2 weeks in Chalon-sur-Saône, France

Now
61 °F

Passing clouds.


Feels Like: 61 °F
Forecast: 46 / 67 °F
Wind: 15 mph from North

Location: Dole Tavaux

Current Time: Sep 22, 2014 at 12:21:59 PM

Latest Report: Sep 22, 2014 at 12:00 PM


Visibility: N/A

Pressure: 30.15 "Hg

Humidity: 68%

Dew point: 50 °F

Location of Chalon-sur-SaôneLocation

Historic Weather in Chalon-sur-Saône — Graph

°F

Chalon-sur-Saône temperature yesterday

Maximum temperature yesterday: 72 °F (at 1:00 PM)
Minimum temperature yesterday: 59 °F (at 6:30 AM)
Average temperature yesterday: 64 °F

Past Weeks' High & Low Weather Summary

 TemperatureHumidityPressure
High82 °F (Sep 8, 4:00 PM)100% (Sep 8, 6:00 AM)30.18 "Hg (Sep 8, 6:00 AM)
Low50 °F (Sep 12, 6:00 AM)42% (Sep 16, 5:30 PM)29.80 "Hg (Sep 17, 3:30 PM)
Average65 °F77%29.98 "Hg
* Reported Sep 7 11:00 AM — Sep 22 11:00 AM, Chalon-sur-Saône, Weather by CustomWeather, © 2014

Note: Actual official high and low records may vary slightly from our data, if they occured in-between our weather recording intervals... More about our weather records

Advertising

Chalon-sur-Saône weather history for previous 24 hours

 ConditionsComfort  
Time TempWeatherWind HumidityBarometerVisibility
11:00 AM
Sep 22
59 °FScattered clouds.10 mph72%30.18 "HgN/A
10:30 AM57 °FPassing clouds.10 mph77%30.18 "HgN/A
10:00 AM57 °FScattered clouds.12 mph82%30.15 "HgN/A
9:30 AM55 °FPartly sunny.10 mph82%30.15 "HgN/A
9:00 AM54 °FLow clouds.10 mph88%30.15 "HgN/A
8:30 AM54 °FLow clouds.8 mph88%30.15 "Hg6 mi
8:00 AM52 °FPassing clouds.7 mph94%30.15 "Hg6 mi
7:30 AM52 °FPassing clouds.6 mph94%30.15 "HgN/A
7:00 AM54 °FLow clouds.6 mph88%30.15 "HgN/A
6:30 AM54 °FMostly cloudy.7 mph94%30.15 "HgN/A
6:00 AM54 °FPassing clouds.8 mph94%30.15 "HgN/A
5:30 AM54 °FPartly cloudy.6 mph94%30.12 "HgN/A
5:00 AM55 °FMostly cloudy.6 mph88%30.12 "HgN/A
4:30 AM55 °FPassing clouds.6 mph88%30.12 "HgN/A
4:00 AM55 °FClear.9 mph88%30.12 "HgN/A
3:30 AM55 °FPassing clouds.7 mph88%30.12 "HgN/A
3:00 AM57 °FMostly cloudy.9 mph88%30.12 "HgN/A
2:00 AM57 °FMostly cloudy.8 mph94%30.15 "HgN/A
1:30 AM59 °FPassing clouds.8 mph88%30.12 "HgN/A
1:00 AM57 °FPassing clouds.6 mph88%30.12 "HgN/A
12:30 AM59 °FPassing clouds.8 mph82%30.15 "HgN/A
12:00 AM59 °FPassing clouds.9 mph88%30.12 "HgN/A
11:30 PM
Sep 21
59 °FClear.9 mph88%30.12 "HgN/A
11:00 PM61 °FMostly cloudy.10 mph88%30.12 "HgN/A
10:30 PM61 °FClear.7 mph88%30.12 "HgN/A
10:00 PM63 °FOvercast.7 mph88%30.12 "HgN/A
9:30 PM63 °FLight rain. Clear.6 mph83%30.09 "HgN/A
9:00 PM63 °FClear.6 mph83%30.09 "HgN/A
8:30 PM63 °FClear.13 mph88%30.09 "HgN/A
8:00 PM64 °FClear.10 mph83%30.09 "HgN/A
7:30 PM64 °FClear.3 mph83%30.07 "HgN/A
7:00 PM66 °FBroken clouds.3 mph78%30.07 "HgN/A
6:30 PM66 °FMostly cloudy.6 mph83%30.07 "HgN/A
6:00 PM66 °FLight rain. Broken clouds.9 mph83%30.04 "HgN/A
5:30 PM68 °FMild.9 mph73%30.04 "HgN/A
5:00 PM68 °FBroken clouds.15 mph78%30.04 "HgN/A
4:30 PM72 °FScattered clouds.12 mph61%30.04 "HgN/A
4:00 PM72 °FPassing clouds.5 mph65%30.04 "HgN/A
3:30 PM70 °FPassing clouds.7 mph69%30.04 "HgN/A
3:00 PM70 °FPassing clouds.9 mph69%30.04 "HgN/A
2:30 PM70 °FBroken clouds.9 mph73%30.04 "HgN/A
2:00 PM68 °FThundershowers. Partly sunny.6 mph78%30.07 "HgN/A
1:30 PM66 °FStrong thunderstorms. Fog.8 mph78%30.07 "Hg1 mi
1:00 PM72 °FBroken clouds.3 mph65%30.07 "HgN/A
12:30 PM70 °FCloudy.5 mph69%30.07 "HgN/A
12:00 PM70 °FClear.7 mph69%30.07 "HgN/A
Weather by CustomWeather, © 2014

See weather overviewHow to use our weather pages